Regional Weather Roundup
Issued by NWS

Home | Current Version | Previous Version | Graphics & Text | Print | Product List | Glossary On
Versions: 1 2 3 4 5 6 7 8 9 10 11 12 13 14 15 16 17 18 19 20 21 22 23 24 25 26 27 28 29 30 31 32 33 34 35 36 37 38 39 40 41 42 43 44 45 46 47 48 49
000
ASUS45 KBOI 060710
RWRID
WEATHER ROUNDUP FOR IDAHO
NATIONAL WEATHER SERVICE BOISE ID
1200 AM MST FRI MAR 06 2015

NOTE: "FAIR" INDICATES FEW OR NO CLOUDS BELOW 12000 FEET
WITH NO SIGNIFICANT WEATHER AND/OR OBSTRUCTIONS TO VISIBILITY

IDZ012-014-060800-
SOUTHWEST IDAHO


CITY           SKY/WX    TMP DP  RH WIND       PRES   REMARKS
BOISE          CLEAR     36  20  52 SE6       30.38R WCI  31
CALDWELL       CLEAR     34  18  51 W3        30.40R
MOUNTAIN HOME  PTCLDY    29  17  62 CALM      30.37S
$$

IDZ016-017-060800-
SOUTHCENTRAL IDAHO


CITY           SKY/WX    TMP DP  RH WIND       PRES   REMARKS
BURLEY         CLEAR     33  15  47 S9        30.35S WCI  25
JEROME         PTCLDY    38  18  44 S6        30.37S WCI  33
TWIN FALLS     PTCLDY    42  18  37 S12       30.37R
$$

IDZ019>023-060800-
SOUTHEAST IDAHO


CITY           SKY/WX    TMP DP  RH WIND       PRES   REMARKS
IDAHO FALLS    PTCLDY    33  20  58 W8        30.37S WCI  26
POCATELLO      CLEAR     40  18  41 S12       30.36S WCI  33
REXBURG        PTCLDY    26  21  81 NE3       30.37R
$$

IDZ006-010-011-018-031-032-060800-
CENTRAL IDAHO MOUNTAINS


CITY           SKY/WX    TMP DP  RH WIND       PRES   REMARKS
MCCALL         CLEAR     25  18  74 CALM      30.37R
HAILEY         CLEAR     32  19  59 NW10      30.37F WCI  24
STANLEY          N/A     19   8  62 CALM      30.40S
SALMON         CLEAR     25  16  68 CALM      30.36R
CHALLIS        CLEAR     30  12  47 N3        30.35R
$$

IDZ002-004-006-007-026-060800-
NORTHERN IDAHO


CITY           SKY/WX    TMP DP  RH WIND       PRES   REMARKS
LEWISTON       CLEAR     37  26  64 SE3       30.36S
LOWELL           N/A     30  25  81 CALM      30.44R
COEUR D`ALENE  CLEAR     28  23  80 CALM      30.33S
MULLAN PASS    CLEAR     28  14  55 VRB3      30.28S
$$



USA.gov is the U.S. government's official web portal to all federal, state and local government web resources and services.